This is the latest recevied weather packets stored in our database for station/object IU1DOF-3. If no packets are shown the sender has not sent any weather packets the latest 10 day(s).
| Time | Temp. | Humidity | Pressure | Rain* | Wind** | Luminosity | Snow |
|---|---|---|---|---|---|---|---|
| 1777635056 | 12.22° C | 71% | 1025.3 hPa | 0 mm | - | - | - |
| 1777634443 | 11.67° C | 74% | 1025.1 hPa | 0 mm | - | - | - |
| 1777633824 | 11.67° C | 77% | 1025.2 hPa | 0 mm | - | - | - |
| 1777633202 | 11.67° C | 76% | 1025.1 hPa | 0 mm | - | - | - |
| 1777632581 | 11.67° C | 76% | 1025.1 hPa | 0 mm | - | - | - |
| 1777631968 | 11.67° C | 78% | 1025.2 hPa | 0 mm | - | - | - |
| 1777631344 | 11.67° C | 79% | 1025.2 hPa | 0 mm | - | - | - |
| 1777630736 | 11.11° C | 80% | 1025.2 hPa | 0 mm | - | - | - |
| 1777630122 | 11.67° C | 80% | 1024.9 hPa | 0 mm | - | - | - |
| 1777629505 | 11.67° C | 81% | 1025.1 hPa | 0 mm | - | - | - |
| 1777628880 | 11.11° C | 82% | 1025.3 hPa | 0 mm | - | - | - |
| 1777628261 | 11.11° C | 82% | 1025 hPa | 0 mm | - | - | - |
| 1777627648 | 11.67° C | 83% | 1024.9 hPa | 0 mm | - | - | - |
| 1777627025 | 11.11° C | 84% | 1024.7 hPa | 0 mm | - | - | - |
| 1777626402 | 11.11° C | 85% | 1024.8 hPa | 0 mm | - | - | - |
| 1777625793 | 10.56° C | 86% | 1024.5 hPa | 0 mm | - | - | - |
| 1777625169 | 11.11° C | 85% | 1024.6 hPa | 0 mm | - | - | - |
| 1777624560 | 11.11° C | 86% | 1024.6 hPa | 0 mm | - | - | - |
| 1777623942 | 11.11° C | 85% | 1024.4 hPa | 0 mm | - | - | - |
| 1777623328 | 10.56° C | 84% | 1024.6 hPa | 0 mm | - | - | - |
| 1777622704 | 11.11° C | 85% | 1024.4 hPa | 0 mm | - | - | - |
| 1777622081 | 11.11° C | 84% | 1024.1 hPa | 0 mm | - | - | - |
| 1777621456 | 10.56° C | 86% | 1024.1 hPa | 0 mm | - | - | - |
| 1777620832 | 10.56° C | 87% | 1024.2 hPa | 0 mm | - | - | - |
| 1777620223 | 10.56° C | 88% | 1024.2 hPa | 0 mm | - | - | - |
* Rain latest hour (hover to see other rain measurements)
** Current wind speed in m/s (hover to see current wind gust speed)